Theta_e
313 314 314 314 314 314 315 315 315 316 316 317 317 317 317 317 316 312 308 312 314 327 324 311 311 313 317 313 314 318 307 303 304 305 306 312 310 313 315 313 315 319 321 328 334
313 313 314 314 314 314 314 315 315 316 317 317 317 317 317 317 312 309 315 317 323 326 311 309 307 311 309 313 313 310 307 307 311 311 310 312 312 311 311 312 314 317 323 328 330
313 313 313 313 314 314 314 314 315 316 317 317 317 317 317 316 311 309 319 317 324 320 312 311 310 308 306 309 312 311 306 311 312 314 315 313 312 314 311 309 313 315 320 326 327
313 313 313 312 313 313 313 314 315 316 316 316 317 317 318 314 299 314 319 318 324 317 312 308 307 305 303 303 308 306 311 313 313 315 314 313 316 312 313 313 317 317 323 326 326
312 313 312 312 312 313 313 314 314 315 315 316 317 317 315 311 305 314 323 320 316 314 308 306 304 305 302 305 306 303 307 311 314 315 314 315 313 314 313 317 319 318 319 324 327
311 311 311 311 312 312 313 314 314 314 314 316 317 318 312 305 312 314 313 313 313 310 309 308 305 305 302 303 304 307 306 307 310 311 313 312 312 314 316 319 318 319 319 319 324
312 312 311 311 311 312 312 313 313 314 315 316 318 316 310 307 312 313 314 311 312 311 306 309 309 305 304 300 306 305 302 304 306 308 309 312 308 309 316 318 317 318 319 321 321
313 312 312 311 311 312 312 313 313 314 317 319 319 314 309 311 313 312 311 310 312 312 310 310 310 305 303 304 301 298 300 296 304 305 307 308 302 312 316 315 315 317 319 320 323
312 312 311 310 311 312 312 312 313 317 318 318 314 314 306 312 308 309 310 306 308 309 310 310 307 302 302 297 295 296 290 293 297 305 305 305 302 310 315 315 314 315 318 320 321
312 310 310 311 311 311 312 312 316 316 317 318 315 305 310 303 307 307 310 309 305 306 305 304 302 298 299 296 288 291 293 294 294 299 301 301 303 308 312 312 313 316 316 317 321
311 310 311 310 311 311 311 315 310 309 313 305 304 304 303 307 308 306 309 306 307 304 298 302 297 294 297 299 299 297 295 294 297 300 299 298 301 305 310 311 311 314 317 315 317
311 310 311 311 311 311 310 309 307 309 300 307 306 304 306 306 300 304 308 301 301 296 299 297 294 299 300 299 297 296 293 293 296 299 298 298 297 302 308 309 312 313 314 316 320
310 311 311 311 310 310 312 309 314 313 301 303 303 302 303 304 300 301 304 301 298 295 296 294 296 300 298 296 294 294 293 293 293 296 298 296 294 299 304 308 311 313 316 317 317
310 311 311 310 306 313 311 314 315 313 295 297 299 302 303 303 299 306 306 302 298 294 296 295 298 297 296 295 296 290 296 295 294 292 287 296 287 297 301 303 307 310 313 316 317
310 311 310 309 312 310 311 315 314 310 286 298 299 307 303 299 301 301 307 301 295 295 295 293 295 295 294 295 297 293 298 295 294 291 290 291 288 292 299 300 305 309 311 315 318
310 310 310 313 314 313 315 315 312 295 286 294 299 298 298 300 300 301 300 303 302 296 296 295 300 298 297 299 298 299 295 294 293 291 284 288 288 289 294 299 304 309 311 314 316
310 309 307 314 308 314 315 310 295 289 297 294 295 297 296 296 296 297 295 295 293 289 289 293 294 299 300 294 298 296 291 284 282 282 282 291 288 291 298 301 303 307 311 313 316
308 307 312 313 316 314 311 301 289 294 294 298 296 296 294 295 295 295 295 292 297 294 290 287 285 293 299 294 292 293 291 284 277 279 282 290 284 290 301 303 305 309 311 313 314
306 316 314 317 315 313 304 293 292 294 296 294 295 293 293 295 295 295 294 293 294 295 288 286 287 295 296 297 296 293 288 294 287 288 283 286 290 296 301 302 305 306 309 312 314
308 313 313 314 314 307 299 294 295 298 298 297 291 294 290 292 292 293 292 296 294 297 298 292 285 293 294 296 298 294 296 287 288 279 277 284 286 288 294 299 304 306 307 312 315
309 306 313 314 311 304 295 295 296 299 299 295 293 292 293 292 293 291 292 295 297 296 297 294 290 290 294 290 290 292 290 290 291 287 280 279 285 297 298 301 301 306 308 312 313
309 300 312 313 301 302 296 296 295 298 300 298 297 295 293 293 292 292 291 295 299 298 292 295 291 286 288 296 297 295 291 293 285 284 287 285 285 300 301 301 300 299 310 312 313
304 305 314 311 296 297 300 298 298 297 298 297 296 297 297 293 289 293 294 298 300 297 294 295 289 283 285 290 293 291 291 292 292 291 286 283 285 299 299 298 299 299 302 310 311
305 299 304 303 305 299 297 297 295 299 297 298 297 298 295 293 295 292 293 297 300 298 301 299 291 286 282 286 290 287 289 291 291 287 287 287 289 294 295 294 298 300 303 309 310
305 300 303 295 297 298 299 298 295 294 298 299 296 296 294 290 291 291 294 295 297 301 298 296 288 290 290 291 291 290 290 291 289 291 286 288 288 293 296 297 298 301 303 306 307
298 297 299 297 300 298 298 297 295 296 296 294 293 295 296 292 292 290 293 294 294 297 296 296 289 290 288 291 292 289 291 291 291 292 292 292 290 297 299 300 300 302 304 304 306
305 304 299 297 299 296 295 296 295 297 297 298 297 295 293 295 298 299 300 300 299 296 295 293 290 287 284 290 290 285 290 291 292 293 293 288 294 299 299 300 301 302 305 305 306
Wind_Speed
16 16 16 16 17 17 17 17 17 17 17 18 18 17 17 18 20 19 13 5 6 11 13 13 14 14 14 13 18 19 15 16 21 21 17 13 18 16 20 21 19 14 5 6 6
17 17 17 18 18 17 17 17 17 17 18 18 19 18 17 17 18 16 7 2 7 8 9 13 14 15 15 16 13 18 17 24 20 18 16 18 12 11 18 23 14 13 9 5 4
17 17 18 18 18 17 17 17 17 17 18 18 18 18 17 16 10 6 7 3 7 10 13 17 14 15 20 18 20 21 23 23 22 22 19 21 14 15 19 20 20 14 16 11 10
18 18 18 19 19 18 17 17 17 18 18 18 18 17 16 11 3 9 6 5 11 12 13 12 13 17 19 22 22 27 28 24 26 24 23 25 16 17 20 21 24 20 17 16 14
18 19 19 20 20 20 19 18 17 18 18 17 16 14 11 9 2 12 11 14 14 12 12 10 13 15 20 20 22 30 27 27 25 24 26 26 25 21 21 21 23 24 22 10 11
19 19 20 20 21 21 19 19 18 18 18 17 14 10 8 12 3 4 4 7 7 8 9 9 10 13 17 21 22 22 27 29 28 28 25 26 26 23 26 20 22 23 22 21 18
18 19 20 21 21 21 21 19 19 20 20 16 10 8 12 8 1 4 8 6 2 5 7 10 13 10 13 18 16 20 26 26 27 26 28 25 26 31 22 17 22 23 21 21 19
19 18 20 21 21 21 21 19 20 21 18 14 7 8 9 6 6 6 5 9 6 5 9 8 9 13 13 14 22 21 23 20 23 28 30 25 28 29 22 19 21 23 21 21 21
19 19 20 21 22 22 21 20 21 18 10 8 7 9 6 7 6 7 8 6 9 10 8 6 7 11 13 14 16 16 20 24 28 26 23 28 32 28 23 21 23 20 20 20 21
22 23 22 22 22 21 19 23 12 10 9 10 12 9 9 2 8 8 4 7 9 10 11 14 13 13 13 13 17 17 20 23 26 24 26 27 28 29 26 26 22 21 21 22 21
24 25 23 23 20 18 13 7 6 7 13 13 10 9 8 2 6 6 3 7 6 9 11 10 10 13 17 17 20 21 22 27 26 26 28 24 25 29 23 25 24 20 18 24 24
26 26 24 22 20 16 9 7 8 10 10 11 12 8 4 4 7 4 1 7 11 12 14 12 13 13 11 14 20 21 24 27 26 23 22 25 30 31 23 25 23 24 22 22 20
25 25 25 21 17 9 10 7 8 9 7 6 2 8 6 6 8 9 4 10 12 13 14 14 16 15 17 16 21 21 21 22 25 22 24 26 30 29 28 25 21 21 24 23 25
25 26 24 22 6 4 1 6 8 7 7 9 8 4 6 6 13 3 6 5 9 14 16 12 15 18 20 17 18 19 20 24 23 21 19 20 20 22 22 25 23 24 21 21 21
25 25 23 10 12 7 8 8 9 4 2 6 9 6 4 8 10 1 6 7 14 14 15 16 17 17 20 22 20 24 21 19 21 21 23 23 18 21 23 23 25 22 26 18 20
26 25 20 8 8 7 8 8 5 7 0 7 1 3 9 9 10 4 5 12 17 18 16 19 10 14 12 19 19 28 19 18 21 18 19 26 23 24 20 24 24 24 22 24 22
27 24 11 9 8 10 10 8 7 6 5 5 8 11 12 14 5 4 6 12 13 10 13 16 13 8 10 13 27 16 9 12 16 15 18 24 24 19 24 24 32 29 14 22 22
31 23 7 9 8 9 9 9 6 8 12 13 11 15 16 5 3 5 14 15 9 12 13 14 12 9 12 12 21 16 13 9 13 18 19 22 14 17 27 24 31 25 17 17 14
31 7 9 6 5 7 8 5 4 9 10 10 13 10 6 4 5 12 14 9 5 9 11 15 18 18 18 9 11 17 16 15 22 17 12 20 23 20 23 24 27 23 23 9 2
9 9 1 4 5 6 7 9 7 7 8 10 12 6 12 15 12 13 13 9 9 10 10 15 19 20 23 14 14 17 17 16 9 10 15 16 19 13 19 16 22 24 23 14 6
5 5 5 5 4 7 4 7 8 10 4 7 12 13 13 12 13 15 14 12 13 12 13 17 14 19 22 15 21 12 15 8 13 6 8 13 13 7 20 22 26 18 25 11 8
7 4 5 4 6 4 5 8 3 8 3 7 7 8 9 13 14 15 14 12 12 14 15 11 7 17 21 25 12 9 11 14 4 6 8 10 21 10 14 24 26 43 8 11 5
8 5 5 4 6 8 10 10 10 7 9 9 9 10 11 13 8 7 14 11 16 14 7 8 6 13 15 10 13 8 16 18 8 15 17 15 14 11 22 28 30 30 33 3 7
7 5 3 6 4 6 12 12 8 2 7 5 10 11 14 10 11 10 15 5 8 14 10 9 11 14 14 20 17 11 15 21 20 15 15 15 21 17 14 11 22 28 26 8 5
4 5 7 6 10 14 13 14 14 12 4 9 10 12 10 11 16 18 13 20 15 12 8 4 9 15 20 22 21 23 22 21 25 26 19 17 18 12 9 9 11 23 27 26 7
6 6 7 13 10 10 8 11 14 11 14 15 16 15 13 12 14 22 19 19 15 15 10 3 7 15 22 23 23 20 20 21 24 20 22 20 18 15 5 13 14 24 26 12 9
7 5 6 8 11 9 9 10 15 14 9 12 14 16 17 18 16 19 19 20 20 19 15 3 4 8 13 14 15 13 12 14 20 18 17 17 19 22 17 18 23 17 21 12 8
Wind_Direction
345 343 341 337 334 332 331 328 324 320 319 317 315 314 315 315 307 280 242 46 339 320 321 284 270 258 239 238 264 263 248 249 254 262 270 262 283 293 308 292 266 272 257 48 23
343 342 340 337 333 331 329 326 323 322 319 317 315 314 315 318 300 273 94 339 323 337 303 268 252 242 238 224 222 237 246 242 246 262 278 279 293 272 270 276 261 256 238 92 265
342 341 337 333 329 328 327 324 322 319 316 316 315 315 316 314 275 88 183 312 309 297 271 274 277 281 259 236 235 229 243 253 254 260 255 271 281 288 278 274 270 218 258 190 231
340 339 337 333 329 326 323 320 318 316 315 314 312 313 314 285 344 117 170 245 259 268 279 267 257 245 250 253 245 245 244 241 256 268 282 280 276 257 277 280 289 295 234 201 192
337 334 332 330 327 325 321 317 314 311 308 308 307 313 310 226 86 147 195 223 248 247 268 274 270 263 256 252 251 256 253 252 252 243 251 271 268 262 253 265 277 283 287 250 160
337 334 332 328 324 321 318 314 310 306 302 300 299 302 261 269 62 124 254 269 274 319 317 297 278 289 292 281 269 266 263 264 258 251 248 241 256 267 250 254 269 273 279 283 207
332 331 329 326 322 318 315 313 310 306 300 291 286 264 262 283 321 287 245 303 299 311 296 312 326 303 301 299 268 270 281 274 265 265 258 248 247 239 257 253 261 264 269 271 273
333 330 327 324 319 314 310 308 306 302 293 283 276 263 275 79 337 260 324 282 270 258 259 263 283 284 279 280 283 278 274 272 254 251 260 262 259 246 239 239 246 253 258 268 269
332 330 325 323 316 310 308 303 299 292 270 264 248 231 239 140 223 344 298 320 311 284 285 265 274 272 276 265 264 242 259 262 266 260 255 242 253 254 247 240 231 242 255 250 254
333 332 326 319 314 308 309 288 275 290 233 223 258 255 246 242 7 297 273 305 305 298 281 240 231 251 252 248 253 265 255 247 252 257 264 267 247 250 247 249 240 231 231 255 253
334 331 324 321 311 308 320 299 207 196 230 274 300 276 284 16 285 282 69 303 263 283 296 323 299 272 274 272 277 285 280 274 275 288 296 291 269 264 245 241 239 232 241 227 252
331 330 328 321 310 309 283 288 33 338 302 277 249 268 305 285 284 291 231 298 320 305 307 277 258 270 299 295 288 280 281 281 287 294 293 289 282 277 270 254 239 229 220 248 240
327 328 329 326 320 280 247 30 324 336 277 174 190 214 226 208 275 295 324 298 291 305 304 306 302 296 284 284 285 278 276 278 286 296 290 283 280 278 271 277 271 258 218 217 244
328 329 331 327 293 297 179 345 324 5 270 130 196 184 217 236 271 97 284 308 296 302 304 299 293 286 281 275 275 276 279 277 278 281 276 278 279 263 268 260 263 270 268 215 221
327 327 324 321 311 340 348 324 348 249 240 152 111 103 256 249 295 353 165 263 278 290 291 291 299 323 305 302 292 285 282 279 284 284 285 269 263 270 269 261 250 237 256 252 214
327 326 327 263 225 343 335 325 248 240 152 143 129 245 285 307 291 277 258 251 258 257 247 269 310 276 301 320 294 287 278 282 284 274 260 268 258 263 260 269 265 247 237 240 242
328 324 308 314 334 349 327 278 251 258 137 73 352 322 316 281 335 247 301 287 283 313 303 309 307 34 33 356 310 274 284 284 265 253 265 261 254 256 263 257 262 268 263 233 228
326 318 232 268 326 338 307 274 268 32 33 359 331 301 260 33 296 259 268 280 344 346 325 309 304 329 178 218 297 293 295 266 273 281 281 299 285 288 296 273 265 272 279 274 284
316 243 240 215 315 320 287 251 262 17 3 334 309 306 321 193 244 310 298 320 4 328 308 309 300 307 297 328 306 307 278 293 291 299 301 285 271 280 268 263 260 253 261 237 236
316 290 148 41 16 290 262 279 330 23 347 324 301 342 329 325 332 321 316 346 319 4 353 318 307 302 299 297 281 265 289 284 280 279 293 283 281 248 272 269 266 254 242 237 152
257 241 73 315 259 251 291 315 359 5 348 329 333 310 314 314 318 329 311 316 20 350 331 314 308 306 308 271 251 298 276 268 280 230 264 287 276 11 357 345 333 264 230 178 148
296 297 90 317 256 254 293 359 332 304 290 299 293 302 289 323 316 305 292 342 347 338 325 352 296 291 293 296 345 211 351 347 310 284 279 295 266 31 359 356 348 339 126 148 145
295 298 137 221 342 353 322 324 276 293 321 312 298 283 316 307 318 294 313 330 339 337 331 335 297 310 300 285 10 342 320 299 275 284 268 273 289 311 15 355 338 326 329 90 63
285 338 16 315 162 267 338 315 326 298 290 288 314 294 279 302 295 276 293 330 299 302 330 275 267 264 276 291 297 277 265 278 280 257 261 253 292 323 65 350 323 311 312 272 117
322 356 16 310 326 325 305 310 290 294 342 304 303 294 312 302 309 297 311 312 321 328 331 325 271 281 278 283 287 288 270 251 269 261 278 295 292 311 141 184 285 281 277 287 287
349 349 341 297 314 288 312 283 318 342 336 312 293 297 323 299 272 283 291 297 298 296 291 324 283 297 290 283 281 295 295 290 274 311 324 327 288 319 101 175 214 256 271 298 298
15 13 309 289 288 312 318 316 312 310 306 303 335 316 300 302 310 299 297 289 280 270 269 220 285 300 285 291 304 287 315 316 307 311 329 326 341 329 343 355 345 301 313 321 321